Wetterdaten: Woche 12.02.24 - 18.02.24 (KW7)
Datum Zeit Temp. I. Temp. A. Feuchte I. Feuchte A. Luftdruck Regen Wind Richtung Sonnenschein Solar Taupunkt Windchill Windböen
12.02.2024 00:00 21,4 °C 7,8 °C 57 % 94 % 996,1 hPa 0,0 l/m² 9,6 km/h (2 Bft) SW 0,00 h 0 W/m² 6,9 °C 5,5 °C 13,7 km/h (3 Bft)
12.02.2024 01:00 21,4 °C 7,4 °C 56 % 93 % 996,3 hPa 0,0 l/m² 9,7 km/h (2 Bft) SW 0,00 h 0 W/m² 6,3 °C 5,0 °C 14,0 km/h (3 Bft)
12.02.2024 02:00 21,4 °C 7,2 °C 56 % 92 % 996,5 hPa 0,0 l/m² 7,1 km/h (2 Bft) SW 0,00 h 0 W/m² 6,0 °C 6,0 °C 10,3 km/h (2 Bft)
12.02.2024 03:00 21,3 °C 7,1 °C 55 % 91 % 996,6 hPa 0,0 l/m² 12,8 km/h (3 Bft) SW 0,00 h 0 W/m² 5,8 °C 2,8 °C 18,4 km/h (3 Bft)
12.02.2024 04:00 21,3 °C 6,7 °C 55 % 91 % 996,9 hPa 0,0 l/m² 12,1 km/h (2 Bft) SW 0,00 h 0 W/m² 5,4 °C 2,7 °C 17,1 km/h (3 Bft)
12.02.2024 05:00 21,4 °C 6,8 °C 55 % 92 % 997,4 hPa 0,0 l/m² 8,1 km/h (2 Bft) SW 0,00 h 0 W/m² 5,6 °C 5,3 °C 12,4 km/h (2 Bft)
12.02.2024 06:00 21,4 °C 6,9 °C 55 % 92 % 998,0 hPa 0,0 l/m² 3,8 km/h (1 Bft) W-SW 0,00 h 0 W/m² 5,7 °C 6,7 °C 7,0 km/h (2 Bft)
12.02.2024 07:00 21,4 °C 6,8 °C 56 % 92 % 999,0 hPa 0,0 l/m² 4,5 km/h (1 Bft) W-SW 0,00 h 5 W/m² 5,6 °C 6,2 °C 7,7 km/h (2 Bft)
12.02.2024 08:00 21,4 °C 7,1 °C 54 % 92 % 999,7 hPa 0,2 l/m² 4,9 km/h (1 Bft) SW 0,00 h 19 W/m² 5,9 °C 6,7 °C 7,3 km/h (2 Bft)
12.02.2024 09:00 21,4 °C 7,5 °C 53 % 92 % 1000,3 hPa 0,0 l/m² 6,4 km/h (2 Bft) SW 0,62 h 60 W/m² 6,3 °C 6,9 °C 9,8 km/h (2 Bft)
12.02.2024 10:00 21,8 °C 9,0 °C 53 % 89 % 1001,1 hPa 0,0 l/m² 9,5 km/h (2 Bft) SW 1,00 h 278 W/m² 7,3 °C 6,9 °C 13,5 km/h (3 Bft)
12.02.2024 11:00 21,8 °C 9,3 °C 53 % 89 % 1001,7 hPa 0,0 l/m² 10,9 km/h (2 Bft) SW 0,98 h 124 W/m² 7,5 °C 6,3 °C 15,2 km/h (3 Bft)
12.02.2024 12:00 21,8 °C 9,1 °C 53 % 87 % 1002,2 hPa 0,0 l/m² 8,5 km/h (2 Bft) W 0,80 h 147 W/m² 7,1 °C 7,4 °C 12,3 km/h (2 Bft)
12.02.2024 13:00 21,8 °C 9,7 °C 53 % 84 % 1002,7 hPa 0,0 l/m² 7,8 km/h (2 Bft) W-SW 0,42 h 99 W/m² 7,2 °C 8,5 °C 11,6 km/h (2 Bft)
12.02.2024 14:00 21,7 °C 9,1 °C 53 % 87 % 1003,2 hPa 0,4 l/m² 9,6 km/h (2 Bft) W-SW 0,63 h 76 W/m² 7,0 °C 6,7 °C 13,4 km/h (3 Bft)
12.02.2024 15:00 21,6 °C 7,8 °C 53 % 88 % 1004,0 hPa 0,4 l/m² 5,6 km/h (2 Bft) W 0,73 h 66 W/m² 5,9 °C 6,7 °C 8,3 km/h (2 Bft)
12.02.2024 16:00 21,6 °C 8,5 °C 53 % 88 % 1004,6 hPa 0,0 l/m² 2,7 km/h (1 Bft) W 0,55 h 64 W/m² 6,5 °C 8,5 °C 4,2 km/h (1 Bft)
12.02.2024 17:00 21,6 °C 7,3 °C 53 % 88 % 1005,5 hPa 0,0 l/m² 1,3 km/h (1 Bft) W 0,00 h 7 W/m² 5,3 °C 7,3 °C 2,6 km/h (1 Bft)
12.02.2024 18:00 21,5 °C 6,4 °C 53 % 89 % 1006,4 hPa 0,0 l/m² 1,8 km/h (1 Bft) SW 0,00 h 0 W/m² 4,8 °C 6,4 °C 3,0 km/h (1 Bft)
12.02.2024 19:00 21,5 °C 6,3 °C 53 % 90 % 1007,4 hPa 0,0 l/m² 0,6 km/h (0 Bft) SW 0,00 h 0 W/m² 4,8 °C 6,3 °C 1,4 km/h (1 Bft)
12.02.2024 20:00 21,7 °C 6,6 °C 54 % 91 % 1008,4 hPa 0,0 l/m² 3,0 km/h (1 Bft) SW 0,00 h 0 W/m² 5,3 °C 6,6 °C 5,0 km/h (1 Bft)
12.02.2024 21:00 21,8 °C 6,0 °C 54 % 90 % 1009,4 hPa 0,0 l/m² 3,1 km/h (1 Bft) SW 0,00 h 0 W/m² 4,4 °C 5,7 °C 4,9 km/h (1 Bft)
12.02.2024 22:00 21,6 °C 5,0 °C 53 % 90 % 1010,2 hPa 0,0 l/m² 5,6 km/h (2 Bft) W-SW 0,00 h 0 W/m² 3,5 °C 4,8 °C 8,2 km/h (2 Bft)
12.02.2024 23:00 21,6 °C 4,2 °C 53 % 90 % 1010,8 hPa 0,0 l/m² 3,0 km/h (1 Bft) W-SW 0,00 h 0 W/m² 2,7 °C 4,1 °C 5,4 km/h (1 Bft)
13.02.2024 00:00 21,5 °C 4,9 °C 53 % 92 % 1011,6 hPa 0,0 l/m² 6,0 km/h (2 Bft) SW 0,00 h 0 W/m² 3,7 °C 4,6 °C 8,5 km/h (2 Bft)
13.02.2024 01:00 21,4 °C 5,2 °C 53 % 92 % 1012,4 hPa 0,0 l/m² 3,9 km/h (1 Bft) W-SW 0,00 h 0 W/m² 4,1 °C 4,8 °C 7,4 km/h (2 Bft)
13.02.2024 02:00 21,4 °C 5,3 °C 53 % 91 % 1013,3 hPa 0,0 l/m² 5,3 km/h (1 Bft) W-SW 0,00 h 0 W/m² 4,0 °C 4,8 °C 8,9 km/h (2 Bft)
13.02.2024 03:00 21,4 °C 4,5 °C 53 % 89 % 1014,1 hPa 0,0 l/m² 2,9 km/h (1 Bft) W-SW 0,00 h 0 W/m² 2,9 °C 4,4 °C 5,7 km/h (2 Bft)
13.02.2024 04:00 21,4 °C 3,3 °C 53 % 90 % 1014,9 hPa 0,0 l/m² 2,5 km/h (1 Bft) SW 0,00 h 0 W/m² 1,7 °C 3,0 °C 5,0 km/h (1 Bft)
13.02.2024 05:00 21,4 °C 3,0 °C 54 % 91 % 1015,6 hPa 0,0 l/m² 5,4 km/h (1 Bft) W-SW 0,00 h 0 W/m² 1,7 °C 2,5 °C 8,2 km/h (2 Bft)
13.02.2024 06:00 21,5 °C 3,2 °C 53 % 91 % 1016,0 hPa 0,0 l/m² 8,1 km/h (2 Bft) SW 0,00 h 0 W/m² 2,0 °C 1,6 °C 11,6 km/h (2 Bft)
13.02.2024 07:00 21,3 °C 2,6 °C 51 % 90 % 1016,7 hPa 0,0 l/m² 1,9 km/h (1 Bft) SW 0,00 h 11 W/m² 1,1 °C 2,6 °C 3,5 km/h (1 Bft)
13.02.2024 08:00 21,3 °C 2,9 °C 51 % 91 % 1017,5 hPa 0,2 l/m² 1,9 km/h (1 Bft) SW 0,73 h 83 W/m² 1,6 °C 2,9 °C 3,5 km/h (1 Bft)
13.02.2024 09:00 21,9 °C 4,5 °C 50 % 89 % 1017,7 hPa 0,0 l/m² 7,4 km/h (2 Bft) SW 1,00 h 243 W/m² 2,9 °C 2,9 °C 10,2 km/h (2 Bft)
13.02.2024 10:00 22,6 °C 6,4 °C 49 % 85 % 1018,1 hPa 0,0 l/m² 9,9 km/h (2 Bft) S-SW 1,00 h 344 W/m² 4,1 °C 3,7 °C 13,7 km/h (3 Bft)
13.02.2024 11:00 23,0 °C 7,7 °C 49 % 81 % 1018,5 hPa 0,0 l/m² 15,4 km/h (3 Bft) SW 1,00 h 410 W/m² 4,5 °C 2,2 °C 20,5 km/h (4 Bft)
13.02.2024 12:00 23,2 °C 8,4 °C 48 % 79 % 1018,6 hPa 0,0 l/m² 15,9 km/h (3 Bft) SW 1,00 h 426 W/m² 5,0 °C 2,9 °C 20,9 km/h (4 Bft)
13.02.2024 13:00 23,0 °C 8,1 °C 49 % 79 % 1018,7 hPa 0,0 l/m² 14,2 km/h (3 Bft) SW 1,00 h 231 W/m² 4,6 °C 3,3 °C 19,5 km/h (3 Bft)
13.02.2024 14:00 22,8 °C 8,5 °C 49 % 78 % 1018,6 hPa 0,0 l/m² 13,4 km/h (3 Bft) SW 1,00 h 265 W/m² 4,8 °C 4,1 °C 18,2 km/h (3 Bft)
13.02.2024 15:00 22,7 °C 8,4 °C 49 % 77 % 1018,7 hPa 0,0 l/m² 14,4 km/h (3 Bft) SW 1,00 h 217 W/m² 4,6 °C 3,5 °C 19,0 km/h (3 Bft)
13.02.2024 16:00 22,6 °C 7,4 °C 49 % 77 % 1018,8 hPa 0,0 l/m² 14,0 km/h (3 Bft) S-SW 0,62 h 79 W/m² 3,7 °C 2,5 °C 17,7 km/h (3 Bft)
13.02.2024 17:00 22,2 °C 5,5 °C 48 % 81 % 1019,2 hPa 0,0 l/m² 8,5 km/h (2 Bft) S-SW 0,00 h 10 W/m² 2,4 °C 3,4 °C 10,8 km/h (2 Bft)
13.02.2024 18:00 21,9 °C 3,8 °C 48 % 84 % 1019,8 hPa 0,0 l/m² 1,1 km/h (0 Bft) S-SW 0,00 h 0 W/m² 1,4 °C 3,8 °C 1,8 km/h (1 Bft)
13.02.2024 19:00 21,8 °C 2,6 °C 50 % 88 % 1020,1 hPa 0,0 l/m² 0,6 km/h (0 Bft) S-SW 0,00 h 0 W/m² 0,8 °C 2,6 °C 0,9 km/h (0 Bft)
13.02.2024 20:00 21,8 °C 1,9 °C 50 % 89 % 1020,1 hPa 0,0 l/m² 0,8 km/h (0 Bft) S-SW 0,00 h 0 W/m² 0,4 °C 1,9 °C 1,6 km/h (1 Bft)
13.02.2024 21:00 21,7 °C 2,3 °C 50 % 89 % 1020,1 hPa 0,0 l/m² 1,7 km/h (1 Bft) S 0,00 h 0 W/m² 0,6 °C 2,3 °C 3,0 km/h (1 Bft)
13.02.2024 22:00 21,7 °C 2,1 °C 50 % 88 % 1020,0 hPa 0,0 l/m² 0,6 km/h (0 Bft) S 0,00 h 0 W/m² 0,4 °C 2,1 °C 1,3 km/h (1 Bft)
13.02.2024 23:00 21,7 °C 2,2 °C 50 % 89 % 1019,9 hPa 0,0 l/m² 0,9 km/h (0 Bft) S 0,00 h 0 W/m² 0,7 °C 2,2 °C 2,1 km/h (1 Bft)
14.02.2024 00:00 21,6 °C 2,8 °C 50 % 88 % 1019,7 hPa 0,0 l/m² 1,1 km/h (0 Bft) S 0,00 h 0 W/m² 1,1 °C 2,8 °C 2,8 km/h (1 Bft)
14.02.2024 01:00 21,6 °C 2,7 °C 50 % 89 % 1019,6 hPa 0,0 l/m² 0,9 km/h (0 Bft) S 0,00 h 0 W/m² 1,1 °C 2,7 °C 2,1 km/h (1 Bft)
14.02.2024 02:00 21,6 °C 2,7 °C 50 % 90 % 1019,3 hPa 0,0 l/m² 1,1 km/h (0 Bft) S 0,00 h 0 W/m² 1,3 °C 2,7 °C 2,0 km/h (1 Bft)
14.02.2024 03:00 21,5 °C 2,4 °C 50 % 91 % 1018,8 hPa 0,0 l/m² 1,9 km/h (1 Bft) S 0,00 h 0 W/m² 1,1 °C 2,4 °C 3,5 km/h (1 Bft)
14.02.2024 04:00 21,4 °C 3,5 °C 50 % 90 % 1018,2 hPa 0,0 l/m² 5,8 km/h (2 Bft) S 0,00 h 0 W/m² 2,1 °C 2,4 °C 8,5 km/h (2 Bft)
14.02.2024 05:00 21,4 °C 5,6 °C 50 % 84 % 1017,6 hPa 0,0 l/m² 11,1 km/h (2 Bft) S-SO 0,00 h 0 W/m² 3,0 °C 2,0 °C 16,0 km/h (3 Bft)
14.02.2024 06:00 21,5 °C 6,3 °C 50 % 82 % 1017,2 hPa 0,0 l/m² 12,0 km/h (2 Bft) S-SO 0,00 h 0 W/m² 3,4 °C 2,4 °C 18,2 km/h (3 Bft)
14.02.2024 07:00 21,4 °C 6,5 °C 49 % 80 % 1016,7 hPa 0,0 l/m² 15,8 km/h (3 Bft) S-SO 0,00 h 9 W/m² 3,4 °C 0,6 °C 23,3 km/h (4 Bft)
14.02.2024 08:00 21,4 °C 6,8 °C 49 % 83 % 1017,1 hPa 0,0 l/m² 9,2 km/h (2 Bft) S 0,57 h 52 W/m² 4,1 °C 4,7 °C 14,0 km/h (3 Bft)
14.02.2024 09:00 21,4 °C 8,3 °C 49 % 82 % 1017,3 hPa 0,0 l/m² 17,0 km/h (3 Bft) S-SW 1,00 h 108 W/m² 5,4 °C 2,5 °C 22,9 km/h (4 Bft)
14.02.2024 10:00 21,5 °C 8,9 °C 50 % 82 % 1017,3 hPa 0,0 l/m² 23,0 km/h (4 Bft) S-SW 1,00 h 161 W/m² 6,0 °C 1,0 °C 31,2 km/h (5 Bft)
14.02.2024 11:00 21,4 °C 8,7 °C 50 % 85 % 1017,6 hPa 0,2 l/m² 18,2 km/h (3 Bft) S-SW 1,00 h 96 W/m² 6,3 °C 2,3 °C 25,5 km/h (4 Bft)
14.02.2024 12:00 21,4 °C 9,9 °C 50 % 84 % 1017,7 hPa 0,0 l/m² 16,8 km/h (3 Bft) S-SW 1,02 h 189 W/m² 7,3 °C 4,4 °C 23,9 km/h (4 Bft)
14.02.2024 13:00 21,4 °C 11,0 °C 50 % 82 % 1017,9 hPa 0,0 l/m² 20,1 km/h (4 Bft) SW 1,00 h 209 W/m² 8,1 °C 4,7 °C 26,3 km/h (4 Bft)
14.02.2024 14:00 21,4 °C 10,9 °C 50 % 83 % 1018,2 hPa 0,0 l/m² 19,3 km/h (3 Bft) SW 1,00 h 154 W/m² 8,1 °C 4,8 °C 25,5 km/h (4 Bft)
14.02.2024 15:00 21,3 °C 10,6 °C 51 % 84 % 1018,3 hPa 0,0 l/m² 13,0 km/h (3 Bft) SW 0,85 h 86 W/m² 8,1 °C 7,1 °C 16,8 km/h (3 Bft)
14.02.2024 16:00 21,3 °C 10,5 °C 51 % 85 % 1018,4 hPa 0,0 l/m² 11,8 km/h (2 Bft) S-SW 0,00 h 29 W/m² 8,1 °C 7,3 °C 15,3 km/h (3 Bft)
14.02.2024 17:00 21,3 °C 10,2 °C 50 % 85 % 1018,5 hPa 0,0 l/m² 11,1 km/h (2 Bft) S-SW 0,00 h 6 W/m² 7,9 °C 7,4 °C 14,6 km/h (3 Bft)
14.02.2024 18:00 21,2 °C 9,8 °C 51 % 87 % 1018,7 hPa 0,0 l/m² 6,2 km/h (2 Bft) S 0,00 h 0 W/m² 7,7 °C 9,3 °C 9,0 km/h (2 Bft)
14.02.2024 19:00 21,2 °C 9,4 °C 51 % 87 % 1018,8 hPa 0,0 l/m² 3,5 km/h (1 Bft) S 0,00 h 0 W/m² 7,4 °C 9,1 °C 5,6 km/h (2 Bft)
14.02.2024 20:00 21,2 °C 9,3 °C 52 % 88 % 1018,8 hPa 0,6 l/m² 5,6 km/h (2 Bft) S-SO 0,00 h 0 W/m² 7,4 °C 8,7 °C 8,8 km/h (2 Bft)
14.02.2024 21:00 21,3 °C 9,4 °C 52 % 91 % 1018,9 hPa 1,0 l/m² 7,2 km/h (2 Bft) S 0,00 h 0 W/m² 7,9 °C 8,0 °C 9,7 km/h (2 Bft)
14.02.2024 22:00 21,3 °C 9,4 °C 52 % 92 % 1018,9 hPa 1,4 l/m² 7,7 km/h (2 Bft) S 0,00 h 0 W/m² 8,1 °C 8,2 °C 10,4 km/h (2 Bft)
14.02.2024 23:00 21,2 °C 9,2 °C 52 % 93 % 1018,8 hPa 0,6 l/m² 4,7 km/h (1 Bft) S 0,00 h 0 W/m² 8,1 °C 8,4 °C 7,2 km/h (2 Bft)
15.02.2024 00:00 21,2 °C 9,0 °C 52 % 94 % 1018,7 hPa 0,2 l/m² 0,4 km/h (0 Bft) NO 0,00 h 0 W/m² 8,0 °C 9,0 °C 1,9 km/h (1 Bft)
15.02.2024 01:00 21,2 °C 9,3 °C 52 % 94 % 1018,5 hPa 0,2 l/m² 2,0 km/h (1 Bft) S-SW 0,00 h 0 W/m² 8,4 °C 9,3 °C 4,7 km/h (1 Bft)
15.02.2024 02:00 21,1 °C 9,7 °C 52 % 94 % 1018,5 hPa 0,0 l/m² 1,8 km/h (1 Bft) S 0,00 h 0 W/m² 8,7 °C 9,7 °C 5,1 km/h (1 Bft)
15.02.2024 03:00 21,1 °C 9,8 °C 52 % 93 % 1018,3 hPa 0,0 l/m² 0,1 km/h (0 Bft) S 0,00 h 0 W/m² 8,7 °C 9,8 °C 0,5 km/h (0 Bft)
15.02.2024 04:00 21,1 °C 9,6 °C 52 % 93 % 1018,4 hPa 0,0 l/m² 0,0 km/h (0 Bft) S 0,00 h 0 W/m² 8,6 °C 9,6 °C 0,3 km/h (0 Bft)
15.02.2024 05:00 21,1 °C 9,2 °C 52 % 93 % 1018,4 hPa 0,0 l/m² 0,4 km/h (0 Bft) S 0,00 h 0 W/m² 8,2 °C 9,2 °C 1,1 km/h (1 Bft)
15.02.2024 06:00 21,1 °C 9,1 °C 52 % 94 % 1018,5 hPa 0,0 l/m² 0,7 km/h (0 Bft) S 0,00 h 0 W/m² 8,2 °C 9,1 °C 2,2 km/h (1 Bft)
15.02.2024 07:00 21,1 °C 9,0 °C 52 % 94 % 1018,7 hPa 0,0 l/m² 0,6 km/h (0 Bft) S 0,00 h 14 W/m² 8,1 °C 9,0 °C 1,7 km/h (1 Bft)
15.02.2024 08:00 21,0 °C 9,6 °C 52 % 95 % 1018,9 hPa 0,0 l/m² 0,1 km/h (0 Bft) S 0,73 h 77 W/m² 8,9 °C 9,6 °C 0,5 km/h (0 Bft)
15.02.2024 09:00 21,2 °C 11,7 °C 51 % 92 % 1018,9 hPa 0,0 l/m² 1,1 km/h (1 Bft) S 1,02 h 101 W/m² 10,5 °C 11,7 °C 3,6 km/h (1 Bft)
15.02.2024 10:00 21,2 °C 12,5 °C 52 % 90 % 1018,8 hPa 0,0 l/m² 5,4 km/h (2 Bft) S-SW 1,00 h 131 W/m² 10,9 °C 12,2 °C 8,8 km/h (2 Bft)
15.02.2024 11:00 21,2 °C 13,0 °C 53 % 88 % 1018,8 hPa 0,0 l/m² 12,4 km/h (2 Bft) S-SW 1,00 h 126 W/m² 11,0 °C 9,8 °C 16,1 km/h (3 Bft)
15.02.2024 12:00 21,2 °C 13,5 °C 52 % 87 % 1018,4 hPa 0,0 l/m² 13,4 km/h (3 Bft) S-SW 1,00 h 161 W/m² 11,3 °C 10,0 °C 16,8 km/h (3 Bft)
15.02.2024 13:00 21,2 °C 13,8 °C 52 % 86 % 1017,8 hPa 0,0 l/m² 12,6 km/h (3 Bft) S 1,00 h 207 W/m² 11,5 °C 10,7 °C 16,4 km/h (3 Bft)
15.02.2024 14:00 21,5 °C 14,7 °C 52 % 84 % 1017,5 hPa 0,0 l/m² 12,0 km/h (2 Bft) S 1,00 h 243 W/m² 12,0 °C 12,0 °C 16,0 km/h (3 Bft)
15.02.2024 15:00 21,5 °C 14,0 °C 52 % 85 % 1017,0 hPa 0,0 l/m² 8,5 km/h (2 Bft) S 0,65 h 61 W/m² 11,4 °C 12,8 °C 11,4 km/h (2 Bft)
15.02.2024 16:00 21,4 °C 13,6 °C 53 % 86 % 1016,8 hPa 0,0 l/m² 8,0 km/h (2 Bft) S-SO 0,00 h 32 W/m² 11,3 °C 12,6 °C 11,1 km/h (2 Bft)
15.02.2024 17:00 21,3 °C 12,6 °C 53 % 88 % 1016,8 hPa 0,0 l/m² 5,1 km/h (1 Bft) S-SO 0,00 h 11 W/m² 10,6 °C 12,4 °C 7,3 km/h (2 Bft)
15.02.2024 18:00 21,2 °C 11,8 °C 54 % 89 % 1016,9 hPa 0,0 l/m² 1,4 km/h (1 Bft) S 0,00 h 0 W/m² 10,0 °C 11,8 °C 2,7 km/h (1 Bft)
15.02.2024 19:00 21,1 °C 10,9 °C 52 % 89 % 1016,8 hPa 0,0 l/m² 0,4 km/h (0 Bft) S 0,00 h 0 W/m² 9,2 °C 10,9 °C 1,0 km/h (0 Bft)
15.02.2024 20:00 20,9 °C 10,3 °C 52 % 91 % 1016,4 hPa 0,0 l/m² 1,1 km/h (1 Bft) SO 0,00 h 0 W/m² 8,8 °C 10,3 °C 2,5 km/h (1 Bft)
15.02.2024 21:00 21,1 °C 10,1 °C 53 % 91 % 1016,1 hPa 0,0 l/m² 1,0 km/h (0 Bft) SO 0,00 h 0 W/m² 8,7 °C 10,1 °C 2,7 km/h (1 Bft)
15.02.2024 22:00 21,1 °C 10,0 °C 53 % 91 % 1015,7 hPa 0,0 l/m² 3,7 km/h (1 Bft) O-SO 0,00 h 0 W/m² 8,5 °C 9,9 °C 6,0 km/h (2 Bft)
15.02.2024 23:00 21,1 °C 9,8 °C 53 % 91 % 1015,4 hPa 0,0 l/m² 4,8 km/h (1 Bft) O 0,00 h 0 W/m² 8,4 °C 9,7 °C 7,9 km/h (2 Bft)
16.02.2024 00:00 21,1 °C 9,3 °C 53 % 91 % 1015,2 hPa 0,0 l/m² 4,3 km/h (1 Bft) O-SO 0,00 h 0 W/m² 7,9 °C 9,2 °C 6,8 km/h (2 Bft)
16.02.2024 01:00 21,1 °C 8,9 °C 53 % 91 % 1015,0 hPa 0,0 l/m² 5,9 km/h (2 Bft) O-SO 0,00 h 0 W/m² 7,5 °C 8,4 °C 9,3 km/h (2 Bft)
16.02.2024 02:00 21,0 °C 8,9 °C 53 % 91 % 1014,7 hPa 0,0 l/m² 1,4 km/h (1 Bft) O 0,00 h 0 W/m² 7,5 °C 8,9 °C 2,8 km/h (1 Bft)
16.02.2024 03:00 21,1 °C 8,8 °C 53 % 91 % 1014,5 hPa 0,0 l/m² 0,4 km/h (0 Bft) O 0,00 h 0 W/m² 7,4 °C 8,8 °C 1,3 km/h (1 Bft)
16.02.2024 04:00 21,1 °C 8,7 °C 53 % 91 % 1014,2 hPa 0,0 l/m² 0,4 km/h (0 Bft) O 0,00 h 0 W/m² 7,4 °C 8,7 °C 1,6 km/h (1 Bft)
16.02.2024 05:00 21,1 °C 8,9 °C 53 % 91 % 1014,0 hPa 0,0 l/m² 1,5 km/h (1 Bft) O 0,00 h 0 W/m² 7,5 °C 8,9 °C 3,4 km/h (1 Bft)
16.02.2024 06:00 21,0 °C 9,7 °C 53 % 89 % 1013,7 hPa 0,0 l/m² 8,3 km/h (2 Bft) O-SO 0,00 h 0 W/m² 8,0 °C 8,2 °C 12,7 km/h (3 Bft)
16.02.2024 07:00 21,0 °C 10,0 °C 53 % 87 % 1013,8 hPa 0,0 l/m² 4,5 km/h (1 Bft) O-SO 0,00 h 16 W/m² 8,0 °C 9,5 °C 7,1 km/h (2 Bft)
16.02.2024 08:00 21,0 °C 10,9 °C 53 % 85 % 1013,7 hPa 0,0 l/m² 8,8 km/h (2 Bft) SO 0,68 h 66 W/m² 8,5 °C 9,3 °C 13,1 km/h (3 Bft)
16.02.2024 09:00 21,1 °C 12,1 °C 53 % 82 % 1013,6 hPa 0,0 l/m² 9,8 km/h (2 Bft) SO 1,00 h 176 W/m² 9,2 °C 10,1 °C 13,9 km/h (3 Bft)
16.02.2024 10:00 21,2 °C 13,1 °C 53 % 81 % 1013,8 hPa 0,0 l/m² 5,5 km/h (2 Bft) S 1,00 h 136 W/m² 9,8 °C 12,5 °C 9,1 km/h (2 Bft)
16.02.2024 11:00 21,0 °C 12,8 °C 52 % 84 % 1014,3 hPa 0,2 l/m² 5,1 km/h (1 Bft) S-SO 0,95 h 160 W/m² 10,2 °C 12,6 °C 7,6 km/h (2 Bft)
16.02.2024 12:00 21,0 °C 13,6 °C 52 % 83 % 1014,1 hPa 0,0 l/m² 5,2 km/h (1 Bft) S 1,00 h 219 W/m² 10,9 °C 13,3 °C 7,5 km/h (2 Bft)
16.02.2024 13:00 21,0 °C 14,8 °C 52 % 79 % 1013,7 hPa 0,0 l/m² 11,1 km/h (2 Bft) S 1,00 h 171 W/m² 11,3 °C 12,5 °C 15,0 km/h (3 Bft)
16.02.2024 14:00 21,1 °C 15,1 °C 52 % 78 % 1013,6 hPa 0,0 l/m² 9,4 km/h (2 Bft) S 1,00 h 112 W/m² 11,3 °C 13,5 °C 12,9 km/h (3 Bft)
16.02.2024 15:00 21,2 °C 15,2 °C 53 % 79 % 1014,0 hPa 0,0 l/m² 1,2 km/h (1 Bft) S 0,43 h 54 W/m² 11,5 °C 15,2 °C 2,0 km/h (1 Bft)
16.02.2024 16:00 21,3 °C 14,3 °C 53 % 81 % 1014,3 hPa 0,0 l/m² 0,9 km/h (0 Bft) S 0,00 h 14 W/m² 11,1 °C 14,3 °C 1,9 km/h (1 Bft)
16.02.2024 17:00 21,2 °C 14,0 °C 53 % 81 % 1014,8 hPa 0,0 l/m² 7,2 km/h (2 Bft) S-SW 0,00 h 0 W/m² 10,8 °C 13,2 °C 9,1 km/h (2 Bft)
16.02.2024 18:00 21,1 °C 13,4 °C 53 % 83 % 1015,6 hPa 0,0 l/m² 3,6 km/h (1 Bft) S-SW 0,00 h 0 W/m² 10,5 °C 13,2 °C 5,4 km/h (2 Bft)
16.02.2024 19:00 21,2 °C 13,3 °C 54 % 84 % 1016,4 hPa 0,0 l/m² 2,8 km/h (1 Bft) S-SW 0,00 h 0 W/m² 10,6 °C 13,0 °C 3,8 km/h (1 Bft)
16.02.2024 20:00 21,2 °C 12,9 °C 56 % 86 % 1017,0 hPa 0,2 l/m² 5,0 km/h (1 Bft) SW 0,00 h 0 W/m² 10,6 °C 12,2 °C 7,3 km/h (2 Bft)
16.02.2024 21:00 21,2 °C 12,5 °C 56 % 89 % 1017,7 hPa 0,2 l/m² 6,6 km/h (2 Bft) SW 0,00 h 0 W/m² 10,7 °C 12,0 °C 9,3 km/h (2 Bft)
16.02.2024 22:00 21,3 °C 12,2 °C 56 % 91 % 1018,5 hPa 1,8 l/m² 4,0 km/h (1 Bft) SW 0,00 h 0 W/m² 10,9 °C 12,1 °C 7,0 km/h (2 Bft)
16.02.2024 23:00 21,3 °C 11,9 °C 57 % 93 % 1019,5 hPa 2,4 l/m² 0,8 km/h (0 Bft) W-NW 0,00 h 0 W/m² 10,8 °C 11,9 °C 2,5 km/h (1 Bft)
17.02.2024 00:00 21,2 °C 11,4 °C 57 % 93 % 1020,4 hPa 1,0 l/m² 6,3 km/h (2 Bft) W-NW 0,00 h 0 W/m² 10,4 °C 10,4 °C 11,1 km/h (2 Bft)
17.02.2024 01:00 21,2 °C 10,8 °C 58 % 93 % 1021,1 hPa 0,2 l/m² 3,1 km/h (1 Bft) W-NW 0,00 h 0 W/m² 9,7 °C 10,7 °C 8,0 km/h (2 Bft)
17.02.2024 02:00 21,2 °C 10,4 °C 58 % 93 % 1021,7 hPa 0,0 l/m² 0,3 km/h (0 Bft) W-NW 0,00 h 0 W/m² 9,3 °C 10,4 °C 1,8 km/h (1 Bft)
17.02.2024 03:00 21,2 °C 9,3 °C 58 % 92 % 1022,1 hPa 0,0 l/m² 3,4 km/h (1 Bft) W-NW 0,00 h 0 W/m² 8,0 °C 9,3 °C 4,8 km/h (1 Bft)
17.02.2024 04:00 21,2 °C 8,3 °C 58 % 92 % 1022,4 hPa 0,0 l/m² 1,4 km/h (1 Bft) W-NW 0,00 h 0 W/m² 7,1 °C 8,3 °C 2,6 km/h (1 Bft)
17.02.2024 05:00 21,2 °C 7,4 °C 58 % 93 % 1023,2 hPa 0,0 l/m² 0,4 km/h (0 Bft) W-NW 0,00 h 0 W/m² 6,3 °C 7,4 °C 0,8 km/h (0 Bft)
17.02.2024 06:00 21,2 °C 7,4 °C 57 % 94 % 1024,1 hPa 0,2 l/m² 0,2 km/h (0 Bft) W-NW 0,00 h 0 W/m² 6,4 °C 7,4 °C 0,5 km/h (0 Bft)
17.02.2024 07:00 21,2 °C 6,7 °C 57 % 94 % 1025,0 hPa 0,0 l/m² 0,7 km/h (0 Bft) W-NW 0,00 h 16 W/m² 5,7 °C 6,7 °C 1,7 km/h (1 Bft)
17.02.2024 08:00 21,1 °C 7,5 °C 55 % 95 % 1026,0 hPa 0,0 l/m² 1,9 km/h (1 Bft) W 0,47 h 45 W/m² 6,6 °C 7,4 °C 4,1 km/h (1 Bft)
17.02.2024 09:00 21,2 °C 8,9 °C 55 % 95 % 1026,9 hPa 0,0 l/m² 3,7 km/h (1 Bft) W-SW 0,67 h 60 W/m² 8,1 °C 8,9 °C 6,8 km/h (2 Bft)
17.02.2024 10:00 21,2 °C 9,9 °C 54 % 93 % 1027,8 hPa 0,0 l/m² 1,7 km/h (1 Bft) W 0,80 h 108 W/m² 8,7 °C 9,9 °C 4,2 km/h (1 Bft)
17.02.2024 11:00 21,2 °C 11,1 °C 52 % 85 % 1028,6 hPa 0,0 l/m² 10,1 km/h (2 Bft) W 0,98 h 196 W/m² 8,7 °C 8,8 °C 17,0 km/h (3 Bft)
17.02.2024 12:00 21,3 °C 11,7 °C 53 % 81 % 1029,0 hPa 0,0 l/m² 12,0 km/h (2 Bft) W-NW 1,00 h 370 W/m² 8,6 °C 8,5 °C 21,4 km/h (4 Bft)
17.02.2024 13:00 21,7 °C 12,1 °C 53 % 79 % 1029,3 hPa 0,0 l/m² 12,1 km/h (2 Bft) W-NW 1,02 h 332 W/m² 8,5 °C 9,0 °C 20,6 km/h (4 Bft)
17.02.2024 14:00 21,6 °C 11,8 °C 53 % 76 % 1029,7 hPa 0,0 l/m² 12,4 km/h (2 Bft) W-NW 1,00 h 159 W/m² 7,8 °C 8,6 °C 19,6 km/h (3 Bft)
17.02.2024 15:00 21,6 °C 12,2 °C 52 % 74 % 1030,2 hPa 0,0 l/m² 10,9 km/h (2 Bft) W-NW 1,00 h 217 W/m² 7,7 °C 9,6 °C 17,5 km/h (3 Bft)
17.02.2024 16:00 21,6 °C 11,4 °C 51 % 78 % 1030,8 hPa 0,0 l/m² 8,6 km/h (2 Bft) NW 0,75 h 82 W/m² 7,7 °C 9,9 °C 13,6 km/h (3 Bft)
17.02.2024 17:00 21,3 °C 9,2 °C 49 % 83 % 1031,6 hPa 0,0 l/m² 4,5 km/h (1 Bft) NW 0,00 h 12 W/m² 6,5 °C 9,1 °C 7,1 km/h (2 Bft)
17.02.2024 18:00 21,3 °C 7,7 °C 50 % 86 % 1032,3 hPa 0,0 l/m² 4,3 km/h (1 Bft) NW 0,00 h 0 W/m² 5,5 °C 7,7 °C 7,2 km/h (2 Bft)
17.02.2024 19:00 21,4 °C 6,1 °C 50 % 89 % 1033,0 hPa 0,0 l/m² 1,7 km/h (1 Bft) NW 0,00 h 0 W/m² 4,4 °C 6,1 °C 2,9 km/h (1 Bft)
17.02.2024 20:00 21,6 °C 5,5 °C 50 % 91 % 1033,5 hPa 0,0 l/m² 0,4 km/h (0 Bft) NW 0,00 h 0 W/m² 4,2 °C 5,5 °C 0,8 km/h (0 Bft)
17.02.2024 21:00 21,7 °C 4,2 °C 52 % 92 % 1033,7 hPa 0,0 l/m² 0,3 km/h (0 Bft) NW 0,00 h 0 W/m² 3,0 °C 4,2 °C 0,7 km/h (0 Bft)
17.02.2024 22:00 21,7 °C 3,2 °C 52 % 92 % 1034,0 hPa 0,0 l/m² 0,3 km/h (0 Bft) SW 0,00 h 0 W/m² 2,1 °C 3,2 °C 0,7 km/h (0 Bft)
17.02.2024 23:00 21,7 °C 3,0 °C 53 % 93 % 1034,2 hPa 0,0 l/m² 0,0 km/h (0 Bft) SW 0,00 h 0 W/m² 1,9 °C 3,0 °C 0,2 km/h (0 Bft)
18.02.2024 00:00 21,6 °C 2,1 °C 55 % 92 % 1034,4 hPa 0,0 l/m² 0,0 km/h (0 Bft) W-SW 0,00 h 0 W/m² 1,0 °C 2,1 °C 0,0 km/h (0 Bft)
18.02.2024 01:00 21,6 °C 1,5 °C 55 % 92 % 1034,3 hPa 0,0 l/m² 0,2 km/h (0 Bft) W-SW 0,00 h 0 W/m² 0,4 °C 1,5 °C 0,5 km/h (0 Bft)
18.02.2024 02:00 21,5 °C 1,1 °C 56 % 93 % 1034,3 hPa 0,0 l/m² 0,1 km/h (0 Bft) W-SW 0,00 h 0 W/m² 0,1 °C 1,1 °C 0,2 km/h (0 Bft)
18.02.2024 03:00 21,4 °C 0,6 °C 56 % 93 % 1033,8 hPa 0,0 l/m² 1,0 km/h (0 Bft) W-SW 0,00 h 0 W/m² -0,4 °C 0,6 °C 1,7 km/h (1 Bft)
18.02.2024 04:00 21,4 °C 0,5 °C 56 % 93 % 1033,2 hPa 0,0 l/m² 0,7 km/h (0 Bft) O-NO 0,00 h 0 W/m² -0,4 °C 0,5 °C 1,8 km/h (1 Bft)
18.02.2024 05:00 21,4 °C 0,2 °C 56 % 94 % 1033,1 hPa 0,0 l/m² 0,2 km/h (0 Bft) O-NO 0,00 h 0 W/m² -0,7 °C 0,2 °C 0,5 km/h (0 Bft)
18.02.2024 06:00 21,5 °C 0,8 °C 55 % 94 % 1032,7 hPa 0,0 l/m² 1,7 km/h (1 Bft) O-NO 0,00 h 0 W/m² -0,1 °C 0,8 °C 2,7 km/h (1 Bft)
18.02.2024 07:00 21,6 °C 0,8 °C 55 % 94 % 1032,4 hPa 0,0 l/m² 0,8 km/h (0 Bft) O-NO 0,00 h 19 W/m² -0,1 °C 0,8 °C 1,4 km/h (1 Bft)
18.02.2024 08:00 21,5 °C 1,6 °C 55 % 95 % 1032,1 hPa 0,0 l/m² 1,0 km/h (0 Bft) O-NO 0,97 h 74 W/m² 0,9 °C 1,6 °C 1,6 km/h (1 Bft)
18.02.2024 09:00 21,7 °C 3,8 °C 55 % 95 % 1031,5 hPa 0,0 l/m² 1,3 km/h (1 Bft) O-NO 1,02 h 151 W/m² 3,1 °C 3,8 °C 2,7 km/h (1 Bft)
18.02.2024 10:00 22,0 °C 6,9 °C 53 % 94 % 1030,8 hPa 0,0 l/m² 1,0 km/h (0 Bft) O-NO 0,98 h 292 W/m² 6,0 °C 6,9 °C 2,5 km/h (1 Bft)
18.02.2024 11:00 22,2 °C 9,4 °C 53 % 88 % 1030,1 hPa 0,0 l/m² 3,3 km/h (1 Bft) O-SO 1,02 h 286 W/m² 7,5 °C 8,8 °C 5,0 km/h (1 Bft)
18.02.2024 12:00 22,1 °C 10,7 °C 53 % 86 % 1028,8 hPa 0,0 l/m² 10,2 km/h (2 Bft) SO 0,98 h 237 W/m² 8,4 °C 8,3 °C 14,6 km/h (3 Bft)
18.02.2024 13:00 22,1 °C 11,5 °C 54 % 82 % 1027,6 hPa 0,0 l/m² 8,4 km/h (2 Bft) S-SO 1,00 h 184 W/m² 8,5 °C 10,2 °C 11,9 km/h (2 Bft)
18.02.2024 14:00 21,9 °C 12,0 °C 54 % 79 % 1026,4 hPa 0,0 l/m² 10,5 km/h (2 Bft) SO 1,00 h 176 W/m² 8,4 °C 9,6 °C 14,7 km/h (3 Bft)
18.02.2024 15:00 21,8 °C 11,9 °C 54 % 77 % 1025,2 hPa 0,0 l/m² 12,0 km/h (2 Bft) S-SO 1,00 h 120 W/m² 7,9 °C 8,8 °C 16,9 km/h (3 Bft)
18.02.2024 16:00 21,8 °C 11,3 °C 54 % 77 % 1024,0 hPa 0,0 l/m² 9,8 km/h (2 Bft) SO 0,57 h 55 W/m² 7,4 °C 9,2 °C 13,9 km/h (3 Bft)
18.02.2024 17:00 21,6 °C 10,8 °C 54 % 77 % 1022,8 hPa 0,0 l/m² 9,9 km/h (2 Bft) SO 0,00 h 13 W/m² 6,9 °C 8,5 °C 14,0 km/h (3 Bft)
18.02.2024 18:00 21,5 °C 10,3 °C 54 % 78 % 1022,2 hPa 0,0 l/m² 8,1 km/h (2 Bft) S 0,00 h 0 W/m² 6,8 °C 9,1 °C 11,9 km/h (2 Bft)
18.02.2024 19:00 21,5 °C 9,4 °C 55 % 85 % 1021,7 hPa 0,6 l/m² 4,7 km/h (1 Bft) S 0,00 h 0 W/m² 6,9 °C 9,2 °C 7,1 km/h (2 Bft)
18.02.2024 20:00 21,7 °C 9,1 °C 57 % 88 % 1020,6 hPa 0,6 l/m² 8,7 km/h (2 Bft) S-SO 0,00 h 0 W/m² 7,2 °C 7,4 °C 12,7 km/h (3 Bft)
18.02.2024 21:00 21,8 °C 8,9 °C 57 % 90 % 1019,8 hPa 0,0 l/m² 13,6 km/h (3 Bft) S 0,00 h 0 W/m² 7,3 °C 4,5 °C 18,8 km/h (3 Bft)
18.02.2024 22:00 21,8 °C 9,0 °C 56 % 89 % 1019,1 hPa 0,0 l/m² 14,3 km/h (3 Bft) S 0,00 h 0 W/m² 7,2 °C 4,2 °C 19,2 km/h (3 Bft)
18.02.2024 23:00 21,6 °C 9,1 °C 55 % 88 % 1018,2 hPa 0,0 l/m² 11,9 km/h (2 Bft) S 0,00 h 0 W/m² 7,2 °C 5,7 °C 16,9 km/h (3 Bft)
Min-Datum _ 15.02.24 18.02.24 13.02.24 17.02.24 12.02.24 - 18.02.24 - - - 18.02.24 13.02.24 18.02.24
_ Min-Zeit 20:00 05:30 18:06 15:14 00:01 - 11:02 - - - 05:30 06:23 11:02
Minimum _ 20,8 °C 0,1 °C 46 % 72 % 995,9 hPa - 0,0 km/h (0 Bft) - - - -0,9 °C -2,0 °C 0,0 km/h (0 Bft)
Max-Datum _ 13.02.24 16.02.24 18.02.24 18.02.24 18.02.24 16.02.24 14.02.24 - 18.02.24 17.02.24 15.02.24 16.02.24 14.02.24
_ Max-Zeit 12:42 15:21 21:01 09:34 01:03 23:01 14:03 - 16:05 12:42 14:32 15:21 13:51
Maximum _ 23,3 °C 15,6 °C 58 % 96 % 1034,7 hPa 2,4 l/m² 30,1 km/h
SW (5 Bft)
- 0,05 h 621 W/m² 12,4 °C 15,6 °C 37,0 km/h
SW (5 Bft)
Durchschnitt _ 21,5 °C 8,3 °C 53 % 88 % 1018,1 hPa #12,8 l/m² 5,9 km/h (2 Bft) S #52:12 h 59 W/m² 6,3 °C 7,0 °C 8,8 km/h (2 Bft)
© 2009 Mathias Hoßbach